Time,TemperatureF,DewpointF,PressureIn,WindDirection,WindDirectionDegrees,WindSpeedMPH,WindSpeedGustMPH,Humidity,HourlyPrecipIn,Conditions,Clouds,dailyrainin,SoftwareType,DateUTC
2013-03-12 00:05:00,47.3,47.3,30.20,NE,52,0.0,0.0,100,0.00,,,0.01,Wunderground v.1.15,2013-03-12 07:05:00,
2013-03-12 00:35:00,46.5,46.5,30.20,NE,52,0.0,0.0,100,0.00,,,0.01,Wunderground v.1.15,2013-03-12 07:35:00,
2013-03-12 01:05:00,46.2,46.2,30.19,NE,52,0.0,0.0,100,0.00,,,0.01,Wunderground v.1.15,2013-03-12 08:05:00,
2013-03-12 01:35:00,45.8,45.8,30.19,NE,52,0.0,0.0,100,0.00,,,0.00,Wunderground v.1.15,2013-03-12 08:35:00,
2013-03-12 02:05:00,45.7,45.7,30.19,NE,52,0.0,0.0,100,0.00,,,0.00,Wunderground v.1.15,2013-03-12 09:05:00,
2013-03-12 02:35:00,45.8,45.8,30.19,NE,52,0.0,0.0,100,0.00,,,0.00,Wunderground v.1.15,2013-03-12 09:35:00,
2013-03-12 03:05:00,45.7,45.7,30.19,NE,52,0.0,0.0,100,0.00,,,0.00,Wunderground v.1.15,2013-03-12 10:05:00,
2013-03-12 03:35:00,45.1,45.1,30.18,NE,52,0.0,0.0,100,0.00,,,0.00,Wunderground v.1.15,2013-03-12 10:35:00,
2013-03-12 04:05:00,44.8,44.8,30.17,NE,52,0.0,0.0,100,0.00,,,0.00,Wunderground v.1.15,2013-03-12 11:05:00,
2013-03-12 04:35:00,45.1,45.1,30.17,NE,52,0.0,0.0,100,0.00,,,0.00,Wunderground v.1.15,2013-03-12 11:35:00,
2013-03-12 05:05:00,45.1,45.1,30.17,NE,52,0.0,0.0,100,0.00,,,0.00,Wunderground v.1.15,2013-03-12 12:05:00,
2013-03-12 05:35:00,45.1,45.1,30.17,NE,52,0.0,0.0,100,0.00,,,0.00,Wunderground v.1.15,2013-03-12 12:35:00,
2013-03-12 06:05:00,45.1,45.1,30.17,SE,137,0.0,1.0,100,0.00,,,0.00,Wunderground v.1.15,2013-03-12 13:05:00,
2013-03-12 06:35:00,45.1,45.1,30.17,SE,137,0.0,1.0,100,0.00,,,0.00,Wunderground v.1.15,2013-03-12 13:35:00,
2013-03-12 07:05:00,45.2,45.2,30.17,SE,137,0.0,0.0,100,0.00,,,0.00,Wunderground v.1.15,2013-03-12 14:05:00,
2013-03-12 07:35:00,45.4,45.4,30.17,SE,137,0.0,0.0,100,0.00,,,0.00,Wunderground v.1.15,2013-03-12 14:35:00,
2013-03-12 08:05:00,45.8,45.8,30.17,SE,137,0.0,0.0,100,0.00,,,0.00,Wunderground v.1.15,2013-03-12 15:05:00,
2013-03-12 08:35:00,46.2,46.2,30.18,SE,137,0.0,0.0,100,0.00,,,0.00,Wunderground v.1.15,2013-03-12 15:35:00,
2013-03-12 09:05:00,47.0,47.0,30.19,SE,137,0.0,0.0,100,0.00,,,0.00,Wunderground v.1.15,2013-03-12 16:05:00,
2013-03-12 09:35:00,48.5,48.5,30.19,SE,137,0.0,0.0,100,0.00,,,0.00,Wunderground v.1.15,2013-03-12 16:35:00,
2013-03-12 10:05:00,50.1,50.1,30.19,SE,137,0.0,0.0,100,0.00,,,0.00,Wunderground v.1.15,2013-03-12 17:05:00,
2013-03-12 10:35:00,51.6,51.6,30.19,SE,137,0.0,0.0,100,0.00,,,0.00,Wunderground v.1.15,2013-03-12 17:35:00,
2013-03-12 11:05:00,51.4,51.4,30.19,SE,137,0.0,0.0,100,0.00,,,0.00,Wunderground v.1.15,2013-03-12 18:05:00,
2013-03-12 11:35:00,52.3,52.3,30.19,SE,137,0.0,0.0,100,0.00,,,0.00,Wunderground v.1.15,2013-03-12 18:35:00,
2013-03-12 12:05:00,52.5,52.5,30.19,SE,137,0.0,1.0,100,0.00,,,0.00,Wunderground v.1.15,2013-03-12 19:05:00,
2013-03-12 12:35:00,52.6,52.6,30.20,SSW,212,0.0,2.0,100,0.00,,,0.00,Wunderground v.1.15,2013-03-12 19:35:00,
2013-03-12 13:05:00,53.5,53.5,30.19,SSW,212,0.0,0.0,100,0.00,,,0.00,Wunderground v.1.15,2013-03-12 20:05:00,
2013-03-12 13:35:00,55.3,54.5,30.18,SSW,212,0.0,0.0,97,0.00,,,0.00,Wunderground v.1.15,2013-03-12 20:35:00,
2013-03-12 14:05:00,57.0,55.3,30.17,SSW,210,0.0,1.0,94,0.00,,,0.00,Wunderground v.1.15,2013-03-12 21:05:00,
2013-03-12 14:35:00,57.6,55.6,30.17,SSW,210,0.0,2.0,93,0.00,,,0.00,Wunderground v.1.15,2013-03-12 21:35:00,
2013-03-12 15:05:00,56.9,54.9,30.18,SSW,212,0.0,1.0,93,0.00,,,0.00,Wunderground v.1.15,2013-03-12 22:05:00,
2013-03-12 15:35:00,56.0,54.6,30.17,SSW,212,0.0,0.0,95,0.00,,,0.00,Wunderground v.1.15,2013-03-12 22:35:00,
2013-03-12 16:05:00,53.3,53.3,30.16,SSW,212,0.0,0.0,100,0.00,,,0.00,Wunderground v.1.15,2013-03-12 23:05:00,
2013-03-12 16:35:00,51.4,51.4,30.17,SSW,212,0.0,2.0,100,0.00,,,0.00,Wunderground v.1.15,2013-03-12 23:35:00,
2013-03-12 17:05:00,50.7,50.7,30.17,West,263,0.0,0.0,100,0.00,,,0.00,Wunderground v.1.15,2013-03-13 00:05:00,
2013-03-12 17:35:00,50.2,50.2,30.16,West,263,0.0,0.0,100,0.00,,,0.00,Wunderground v.1.15,2013-03-13 00:35:00,
2013-03-12 18:05:00,49.5,49.5,30.17,West,263,0.0,0.0,100,0.00,,,0.00,Wunderground v.1.15,2013-03-13 01:05:00,
2013-03-12 18:35:00,48.9,48.9,30.17,West,263,0.0,0.0,100,0.00,,,0.00,Wunderground v.1.15,2013-03-13 01:35:00,
2013-03-12 19:05:00,48.6,48.6,30.17,West,263,0.0,0.0,100,0.00,,,0.00,Wunderground v.1.15,2013-03-13 02:05:00,
2013-03-12 19:35:00,48.3,48.3,30.17,West,263,0.0,0.0,100,0.00,,,0.00,Wunderground v.1.15,2013-03-13 02:35:00,
2013-03-12 20:05:00,48.5,48.5,30.18,West,263,0.0,0.0,100,0.00,,,0.00,Wunderground v.1.15,2013-03-13 03:05:00,
2013-03-12 20:35:00,48.2,48.2,30.19,West,263,0.0,0.0,100,0.00,,,0.00,Wunderground v.1.15,2013-03-13 03:35:00,
2013-03-12 21:05:00,47.9,47.9,30.19,West,263,0.0,0.0,100,0.00,,,0.00,Wunderground v.1.15,2013-03-13 04:05:00,
2013-03-12 21:35:00,47.6,47.6,30.19,West,263,0.0,0.0,100,0.00,,,0.00,Wunderground v.1.15,2013-03-13 04:35:00,
2013-03-12 22:05:00,47.4,47.4,30.19,West,263,0.0,0.0,100,0.00,,,0.00,Wunderground v.1.15,2013-03-13 05:05:00,
2013-03-12 22:35:00,47.3,47.3,30.18,West,263,0.0,0.0,100,0.00,,,0.00,Wunderground v.1.15,2013-03-13 05:35:00,
2013-03-12 23:05:00,47.3,47.3,30.19,West,263,0.0,0.0,100,0.00,,,0.00,Wunderground v.1.15,2013-03-13 06:05:00,
2013-03-12 23:35:00,47.3,47.3,30.20,West,263,0.0,0.0,100,0.00,,,0.00,Wunderground v.1.15,2013-03-13 06:35:00,